[[{"header":{"parameterUnit":"m.s-1","parameterCategory":1,"la1":30.2991,"la2":30.254,"lo1":-89.0895,"lo2":-89.0444,"dy":0.0017,"dx":0.0017,"nx":28,"ny":28,"refTime":"2023-10-07T09:00:00:Z","depth":0,"parameterNumber":2,"parameterNumberName":"U-component_of_WINDS"},"data":[0,0,0,0,0,0,0,0,0,0,0,0,0,0,0,0,0,0,0,0,0,0,0,0,0,0,0,0,0,0,0,0,0,0,0,0,0,0,0,0,0,0,0,0,0,0,0,0,0,0,0,0,0,0,0,0,0,0,-4.2519,-4.2519,0,-4.2533,-4.2533,-4.2534,-4.2447,-4.2445,-4.2442,-4.244,-4.2453,-4.2456,-4.2459,0,0,0,0,0,0,0,0,0,0,0,0,0,-4.2416,-4.2418,-4.2519,-4.2519,-4.2519,-4.2533,-4.2533,-4.2534,-4.2447,-4.2444,-4.2441,-4.2439,-4.2452,-4.2456,-4.2459,0,0,0,0,0,0,0,0,0,0,0,0,0,-4.2449,-4.2419,-4.2519,-4.2478,-4.2475,-4.2533,-4.2533,-4.2534,-4.2448,-4.2444,-4.2441,-4.2437,-4.2451,-4.2455,-4.2459,-4.2558,0,0,-4.2471,-4.2473,0,0,0,0,0,0,0,0,-4.2447,-4.2452,-4.2484,-4.2481,-4.2477,-4.2485,-4.2502,-4.2542,-4.2449,-4.2458,-4.244,-4.2435,-4.2467,-4.2469,-4.248,-4.2558,-4.2559,-4.2472,-4.2474,-4.2476,-4.2477,0,0,0,0,0,0,0,-4.2445,-4.2451,-4.2525,-4.2485,-4.248,-4.2459,-4.2459,-4.2509,-4.2483,-4.2457,-4.2451,-4.2454,-4.2464,-4.2476,-4.248,-4.2559,-4.2472,-4.2475,-4.2478,-4.2479,-4.2719,-4.2722,0,0,0,0,0,0,-4.2448,-4.245,-4.2524,-4.2525,-4.2453,-4.2463,-4.2464,-4.2486,-4.2482,-4.2478,-4.2457,-4.245,-4.2471,-4.2475,-4.248,-4.2595,-4.2476,-4.248,-4.2482,-4.2715,-4.2719,-4.2724,0,0,0,0,0,0,-4.2446,-4.2456,-4.2524,-4.2486,-4.2493,-4.2469,-4.2494,-4.2488,-4.25,-4.2482,-4.2477,-4.2474,-4.2469,-4.2474,-4.2539,-4.2594,-4.2481,-4.2485,-4.271,-4.2716,-4.2722,-4.2826,0,0,0,0,0,0,-4.2444,-4.2455,-4.2493,-4.2487,-4.2495,-4.2583,-4.2498,-4.2491,-4.2507,-4.2498,-4.2497,-4.2493,-4.2466,-4.2533,-4.2543,-4.2597,-4.2488,-4.2705,-4.2713,-4.272,-4.2817,-4.2834,-4.2849,0,0,0,0,0,-4.244,-4.2521,-4.2495,-4.2505,-4.2542,-4.2587,-4.2591,-4.2559,-4.2512,-4.255,-4.2538,-4.2493,-4.2586,-4.2541,-4.2551,-4.2607,-4.2701,-4.2711,-4.2719,-4.281,-4.2831,-4.2849,0,0,0,0,0,0,-4.2533,-4.252,-4.2491,-4.2572,-4.2582,-4.2572,-4.2618,-4.2582,-4.2604,-4.2594,-4.2553,-4.2553,-4.2625,-4.2622,-4.2572,-4.2702,-4.2636,-4.2647,-4.2701,-4.2721,-4.2737,-4.2736,-4.2491,0,0,0,0,0,-4.2564,-4.2602,-4.2587,-4.2661,-4.2667,-4.2642,-4.266,-4.2635,-4.2642,-4.2645,-4.2638,-4.2647,-4.2678,-4.2699,-4.2727,-4.2816,-4.2815,-4.286,-4.2876,-4.2889,-4.29,-4.2947,-4.2967,-4.2753,-4.2753,-4.2753,0,0,-4.2626,-4.2623,-4.265,-4.268,-4.2683,-4.2724,-4.2646,-4.2691,-4.2721,-4.2652,-4.2713,-4.2708,-4.2715,-4.2793,-4.2826,-4.2793,-4.2958,-4.2901,-4.2911,-4.2914,-4.2958,-4.2978,-4.2996,-4.2759,-4.2758,-4.2757,0,0,-4.276,-4.2762,-4.2824,-4.2829,-4.2836,-4.2819,-4.2834,-4.283,-4.2825,-4.2885,-4.2835,-4.2868,-4.2923,-4.293,-4.2941,-4.3078,-4.3038,-4.3088,-4.3172,-4.3218,-4.3235,-4.325,-4.3299,-4.3317,-4.3099,-4.3099,-4.3099,0,-4.2837,-4.2896,-4.286,-4.2909,-4.2924,-4.2864,-4.2926,-4.2933,-4.2949,-4.296,-4.2922,-4.2989,-4.2989,-4.3068,-4.3102,-4.3112,-4.3128,-4.3088,-4.3236,-4.325,-4.3263,-4.331,-4.3329,-4.3105,-4.3104,-4.3104,-4.3103,0,-4.299,-4.3032,-4.308,-4.3098,-4.3118,-4.3173,-4.3145,-4.317,-4.3142,-4.3129,-4.3191,-4.319,-4.3216,-4.3233,-4.3206,-4.3308,-4.3286,-4.3243,-4.3175,-4.3291,-4.3333,-4.3351,-4.3114,-4.3112,-4.311,-4.3108,0,0,-4.3184,-4.3181,-4.3199,-4.3206,-4.321,-4.3241,-4.3293,-4.3319,-4.3341,-4.3354,-4.3397,-4.3445,-4.3405,-4.3417,-4.339,-4.3431,-4.3541,-4.3382,-4.3382,-4.3412,-4.3652,-4.3686,-4.3707,-4.3514,-4.3517,-4.352,-4.3652,0,-4.3315,-4.3405,-4.3375,-4.3466,-4.3504,-4.3448,-4.3493,-4.35,-4.349,-4.352,-4.3507,-4.3542,-4.3486,-4.3493,-4.3531,-4.3519,-4.3588,-4.3509,-4.3553,-4.3555,-4.3554,-4.3729,-4.3764,-4.3889,-4.3668,-4.3671,-4.3673,0,-4.3481,-4.3501,-4.3597,-4.3594,-4.3609,-4.3651,-4.3672,-4.3702,-4.3708,-4.3697,-4.3711,-4.3676,-4.3727,-4.366,-4.3729,-4.3676,-4.3692,-4.3689,-4.3693,-4.3696,-4.3622,-4.3737,-4.3928,-4.3947,-4.3699,-4.3697,-4.3695,0,-4.3613,-4.3664,-4.3728,-4.3736,-4.3734,-4.3765,-4.3765,-4.3768,-4.3786,-4.3804,-4.3815,-4.384,-4.3853,-4.3873,-4.3845,-4.3798,-4.3919,-4.3849,-4.3911,-4.3912,-4.3939,-4.3938,-4.4136,-4.3949,-4.3949,-4.3949,-4.3948,0,-4.3764,-4.3825,-4.3787,-4.3827,-4.3893,-4.3857,-4.3923,-4.3917,-4.3921,-4.3957,-4.391,-4.3945,-4.3906,-4.3938,-4.3917,-4.3978,-4.3984,-4.3977,-4.397,-4.3981,-4.3982,-4.3991,-4.3982,-4.3954,-4.3953,-4.3952,-4.3951,0,-4.3923,-4.39,-4.3966,-4.3959,-4.3959,-4.4008,-4.4002,-4.4037,-4.4023,-4.4071,-4.4079,-4.4057,-4.4092,-4.4066,-4.4101,-4.4086,-4.4167,-4.4148,-4.4165,-4.416,-4.4224,-4.4218,-4.4435,-4.4461,-4.4258,-4.426,-4.4262,0,-4.402,-4.4066,-4.4064,-4.4086,-4.4089,-4.4125,-4.4143,-4.4108,-4.4129,-4.414,-4.4175,-4.4206,-4.4229,-4.4287,-4.4274,-4.43,-4.4282,-4.4356,-4.4285,-4.4295,-4.4283,-4.4281,-4.4285,-4.437,-4.4373,-4.4375,-4.4376,0,-4.4196,-4.4183,-4.4211,-4.4236,-4.4259,-4.4276,-4.4289,-4.431,-4.4275,-4.4301,-4.4336,-4.4354,-4.439,-4.4421,-4.4442,-4.4442,-4.4404,-4.4399,-4.4414,-4.4426,-4.4434,-4.4431,-4.4204,-4.4394,-4.4392,-4.4391,-4.439,-4.4389,-4.4328,-4.4366,-4.437,-4.4403,-4.441,-4.4424,-4.4457,-4.4447,-4.4476,-4.4503,-4.4481,-4.4523,-4.4528,-4.4553,-4.4558,-4.459,-4.456,-4.4583,-4.4589,-4.4595,-4.4604,-4.4429,-4.4594,-4.4594,-4.4593,-4.4593,-4.4592,0,-4.4501,-4.4501,-4.4532,-4.4553,-4.4579,-4.454,-4.4553,-4.4577,-4.4616,-4.4624,-4.4648,-4.4689,-4.4719,-4.4708,-4.4735,-4.4763,-4.4746,-4.4771,-4.4769,-4.4769,-4.463,-4.4614,-4.4784,-4.4784,-4.4784,-4.4784,-4.4784,-4.4784,-4.4595,-4.4657,-4.4644,-4.4709,-4.4708,-4.475,-4.4761,-4.4773,-4.478,-4.4828,-4.4853,-4.4846,-4.4846,-4.4872,-4.4898,-4.4894,-4.4906,-4.4938,-4.4928,-4.4798,-4.4779,-4.4761,-4.4746,-4.4941,-4.4941,-4.5064,-4.5066,-4.5067]},{"header":{"parameterUnit":"m.s-1","parameterCategory":1,"la1":30.2991,"la2":30.254,"lo1":-89.0895,"lo2":-89.0444,"dy":0.0017,"dx":0.0017,"nx":28,"ny":28,"refTime":"2023-10-07T09:00:00:Z","depth":0,"parameterNumber":3,"parameterNumberName":"V-component_of_WINDS"},"data":[0,0,0,0,0,0,0,0,0,0,0,0,0,0,0,0,0,0,0,0,0,0,0,0,0,0,0,0,0,0,0,0,0,0,0,0,0,0,0,0,0,0,0,0,0,0,0,0,0,0,0,0,0,0,0,0,0,0,-4.3496,-4.3496,0,-4.3539,-4.354,-4.354,-4.3489,-4.3487,-4.3485,-4.3483,-4.3525,-4.3528,-4.3531,0,0,0,0,0,0,0,0,0,0,0,0,0,-4.3366,-4.3368,-4.3496,-4.3496,-4.3497,-4.3539,-4.354,-4.354,-4.3489,-4.3487,-4.3484,-4.3482,-4.3524,-4.3528,-4.3531,0,0,0,0,0,0,0,0,0,0,0,0,0,-4.3417,-4.3369,-4.3496,-4.3476,-4.3475,-4.3539,-4.354,-4.354,-4.349,-4.3487,-4.3484,-4.3481,-4.3523,-4.3527,-4.3532,-4.3616,0,0,-4.3545,-4.3547,0,0,0,0,0,0,0,0,-4.3414,-4.3422,-4.3479,-4.3478,-4.3477,-4.3506,-4.3509,-4.3566,-4.349,-4.3484,-4.3483,-4.348,-4.3521,-4.3525,-4.354,-4.3618,-4.3619,-4.3545,-4.3548,-4.355,-4.3551,0,0,0,0,0,0,0,-4.3411,-4.3419,-4.3513,-4.348,-4.3478,-4.3465,-4.3469,-4.352,-4.3518,-4.3484,-4.3481,-4.3487,-4.352,-4.3536,-4.354,-4.362,-4.3545,-4.3549,-4.3552,-4.3553,-4.3769,-4.3772,0,0,0,0,0,0,-4.341,-4.3417,-4.3511,-4.3514,-4.3438,-4.3469,-4.3474,-4.3499,-4.3517,-4.3517,-4.3489,-4.3484,-4.3529,-4.3535,-4.3541,-4.3641,-4.355,-4.3554,-4.3556,-4.3766,-4.3769,-4.3773,0,0,0,0,0,0,-4.3407,-4.3418,-4.351,-4.3465,-4.3475,-4.3475,-4.3503,-4.3502,-4.3517,-4.3521,-4.352,-4.3506,-4.3527,-4.3535,-4.3598,-4.3642,-4.3556,-4.356,-4.3762,-4.3767,-4.3771,-4.3841,0,0,0,0,0,0,-4.3403,-4.3418,-4.3451,-4.3466,-4.3478,-4.3566,-4.3506,-4.3504,-4.3525,-4.3519,-4.3536,-4.3536,-4.3526,-4.3591,-4.3602,-4.3646,-4.3563,-4.3758,-4.3764,-4.377,-4.3835,-4.3847,-4.3858,0,0,0,0,0,-4.3399,-4.3468,-4.3453,-4.3464,-4.3519,-4.3569,-4.3576,-4.3563,-4.3529,-4.3561,-4.3563,-4.3536,-4.3635,-4.3598,-4.361,-4.3656,-4.3755,-4.3762,-4.3769,-4.3829,-4.3845,-4.3858,0,0,0,0,0,0,-4.3457,-4.347,-4.3453,-4.3529,-4.3548,-4.356,-4.3601,-4.358,-4.3609,-4.3602,-4.3584,-4.3588,-4.3655,-4.3661,-4.362,-4.3738,-4.3689,-4.3699,-4.3731,-4.3746,-4.3758,-4.3755,-4.3567,0,0,0,0,0,-4.3479,-4.352,-4.3528,-4.3594,-4.3605,-4.3602,-4.3623,-4.3611,-4.363,-4.3638,-4.3645,-4.3664,-4.3699,-4.3723,-4.3755,-4.3835,-4.3838,-4.3872,-4.3884,-4.3894,-4.3902,-4.3945,-4.396,-4.3796,-4.3796,-4.3795,0,0,-4.3525,-4.3536,-4.3563,-4.3607,-4.362,-4.3662,-4.3609,-4.3655,-4.3686,-4.3645,-4.3705,-4.371,-4.373,-4.3801,-4.3833,-4.3809,-4.3948,-4.3903,-4.391,-4.3914,-4.3953,-4.3969,-4.3983,-4.38,-4.38,-4.3799,0,0,-4.3629,-4.3642,-4.3699,-4.3714,-4.3735,-4.3732,-4.3746,-4.3761,-4.3763,-4.3823,-4.3793,-4.3829,-4.389,-4.3905,-4.3921,-4.4031,-4.4006,-4.4042,-4.4103,-4.4145,-4.4158,-4.4169,-4.4208,-4.4222,-4.405,-4.405,-4.405,0,-4.3682,-4.3745,-4.373,-4.3779,-4.3799,-4.3764,-4.3821,-4.3836,-4.3867,-4.3881,-4.3854,-4.393,-4.3941,-4.4015,-4.4042,-4.4056,-4.407,-4.404,-4.4157,-4.4169,-4.4179,-4.4216,-4.4231,-4.4054,-4.4054,-4.4054,-4.4053,0,-4.3809,-4.3853,-4.3896,-4.3928,-4.3952,-4.4005,-4.3997,-4.4024,-4.401,-4.4009,-4.407,-4.4082,-4.4116,-4.4133,-4.4119,-4.4205,-4.419,-4.416,-4.4111,-4.4199,-4.4234,-4.4248,-4.4061,-4.4059,-4.4058,-4.4057,0,0,-4.3952,-4.3975,-4.3991,-4.4005,-4.4026,-4.4059,-4.411,-4.4144,-4.4167,-4.4189,-4.4231,-4.4283,-4.4256,-4.4274,-4.4262,-4.4298,-4.4384,-4.4264,-4.4264,-4.4286,-4.4479,-4.4502,-4.4518,-4.4367,-4.437,-4.4372,-4.4477,0,-4.4057,-4.4146,-4.4134,-4.4218,-4.4258,-4.4226,-4.427,-4.4287,-4.4288,-4.4321,-4.4321,-4.4359,-4.432,-4.433,-4.4365,-4.4366,-4.4422,-4.4358,-4.4405,-4.4407,-4.4402,-4.4536,-4.456,-4.4659,-4.4491,-4.4493,-4.4495,0,-4.4191,-4.4219,-4.4308,-4.4323,-4.4339,-4.4379,-4.4409,-4.4442,-4.446,-4.4458,-4.4478,-4.4459,-4.4509,-4.4459,-4.4526,-4.4483,-4.4501,-4.4505,-4.4508,-4.4512,-4.4457,-4.4544,-4.469,-4.4705,-4.4516,-4.4514,-4.4512,0,-4.4287,-4.4346,-4.4407,-4.442,-4.4439,-4.4468,-4.4476,-4.4492,-4.4513,-4.4539,-4.4553,-4.4584,-4.4601,-4.4626,-4.4615,-4.458,-4.4685,-4.4634,-4.4684,-4.4685,-4.4708,-4.4707,-4.4859,-4.4719,-4.4719,-4.4719,-4.4719,0,-4.4405,-4.4461,-4.4451,-4.4488,-4.4549,-4.4534,-4.4595,-4.46,-4.4614,-4.4651,-4.4624,-4.466,-4.4644,-4.4678,-4.467,-4.4727,-4.4734,-4.4734,-4.4731,-4.4737,-4.4737,-4.4749,-4.4742,-4.4723,-4.4722,-4.4721,-4.4721,0,-4.4523,-4.4518,-4.4582,-4.4595,-4.4599,-4.4644,-4.4654,-4.4689,-4.4687,-4.4734,-4.4744,-4.4742,-4.478,-4.4772,-4.4814,-4.4809,-4.4881,-4.4869,-4.4875,-4.4872,-4.4923,-4.4919,-4.5089,-4.5111,-4.4956,-4.4958,-4.4959,0,-4.4599,-4.4641,-4.4658,-4.4682,-4.4693,-4.4731,-4.4753,-4.4739,-4.4763,-4.4787,-4.4818,-4.4854,-4.4883,-4.4946,-4.4947,-4.4979,-4.4968,-4.5025,-4.4973,-4.4977,-4.4969,-4.4967,-4.4971,-4.5036,-4.5038,-4.5039,-4.504,0,-4.4735,-4.473,-4.4763,-4.4795,-4.4822,-4.4847,-4.4869,-4.4889,-4.4877,-4.4905,-4.4944,-4.4966,-4.5009,-4.5045,-4.5075,-4.5083,-4.506,-4.5057,-4.507,-4.5077,-4.5078,-4.5078,-4.4904,-4.5053,-4.5052,-4.5051,-4.505,-4.505,-4.4834,-4.487,-4.4888,-4.4925,-4.494,-4.4961,-4.4994,-4.4997,-4.503,-4.5065,-4.5054,-4.5099,-4.5115,-4.5153,-4.5164,-4.5198,-4.5177,-4.5196,-4.5201,-4.5206,-4.5212,-4.5073,-4.5203,-4.5203,-4.5203,-4.5202,-4.5202,0,-4.4968,-4.4978,-4.5013,-4.5044,-4.5074,-4.505,-4.5073,-4.5098,-4.5139,-4.5156,-4.5185,-4.523,-4.5264,-4.5268,-4.5301,-4.5328,-4.5318,-4.5337,-4.5335,-4.5337,-4.523,-4.5215,-4.5344,-4.5344,-4.5344,-4.5344,-4.5344,-4.5344,-4.5042,-4.5102,-4.5099,-4.5166,-4.5175,-4.5219,-4.5234,-4.5253,-4.5267,-4.5319,-4.5348,-4.535,-4.5362,-4.5395,-4.5426,-4.5426,-4.5439,-4.5463,-4.5459,-4.5359,-4.5344,-4.5331,-4.5317,-4.5465,-4.5466,-4.5563,-4.5564,-4.5565]}]]